Location: Bilsen
(53.7722°N, 9.8765°E)
Time: 10:32:36
(UTC+00:00)

Cosmos 2360 Rocket - Pass Details

Date: 18 February 2020
Orbit: 836 x 843 km, 71.0° (Epoch: 29 March)

Event Time Altitude Azimuth Distance (km) Brightness Sun altitude
Exits shadow 04:10:56 16° 325° (NW) 2,057 4.0 -21.8°
Maximum altitude 04:12:06 17° 340° (NNW) 2,005 4.0 -21.6°
Drops below altitude 10° 04:15:45 10° 20° (NNE) 2,466 5.0 -21.1°
Sets 04:19:07 0° 40° (NE) 3,401 6.1 -20.6°
